Tracking 20623 objects as of 3-Apr-2020
HD Live streaming from Space Station
objects crossing your sky now

THOR ABLESTAR R/B

Track THOR ABLESTAR R/B now!
10-day predictions


NORAD ID: 893
Int'l Code: 1964-063A
Perigee: 1,037.9 km
Apogee: 1,076.0 km
Inclination: 90.2 °
Period: 106.2 minutes
Semi major axis: 7427 km
RCS: 4.0212 m2 (large)
Launch date: October 6, 1964
Source: United States (US)
Launch site: AIR FORCE WESTERN TEST RANGE (AFWTR)

Note: This is a ROCKET BODY
aabbcc
Your satellite tracking list
Your tracking list is empty




NASA's NSSDC Master Catalog

Two Line Element Set (TLE):
1   893U 64063A   20093.86371969 +.00000038 +00000-0 +42069-4 0  9998
2   893 090.1632 029.9515 0025620 006.1352 051.4153 13.56126559744856
Source of the keplerian elements: AFSPC